Volk, WI

2:48 AM CDT on May 27, 2017 (GMT -0500)
Volk

Weather History for KVOK - October, 2013

Change the Weather History Date:

Sunday, October 6, 2013

  Actual Average Record
Temperature  
Mean Temperature 44 °F -  
Max Temperature 55 °F 60 °F 85 °F (2007)
Min Temperature 33 °F 42 °F 27 °F (2014)
Degree Days  
Heating Degree Days 21    
Moisture  
Dew Point 39 °F    
Average Humidity 91    
Maximum Humidity 100    
Minimum Humidity 52    
Precipitation  
Precipitation 0.01 in - - ()
Sea Level Pressure  
Sea Level Pressure 29.73 in    
Wind  
Wind Speed 2 mph (SE)    
Max Wind Speed 8 mph    
Max Gust Speed -    
Visibility 6 miles    
Events Fog    
Averages and records for this station are not official NWS values.
T = Trace of Precipitation, MM = Missing Value Source: NWS Daily Summary

Daily Weather History Graph

Daily Weather History Graph

Search for Another Location

Airport or City:

Trip Planner

Search our weather history database for the weather conditions in past years. The results will help you decide how hot, cold, wet, or windy it might be!

Date:

Astronomy

Oct. 06, 2013 Rise Set
Actual Time 7:04 AM CDT 6:32 PM CDT
Civil Twilight 6:36 AM CDT 7:01 PM CDT
Nautical Twilight 6:02 AM CDT 7:34 PM CDT
Astronomical Twilight 5:29 AM CDT 8:08 PM CDT
Moon 8:54 AM CDT (10/6) 7:26 PM CDT (10/6)
Length of Visible Light 12h 25m
Length of Day
11h 27m
Waxing Crescent, 3% of the Moon is Illuminated
Oct 6
Waxing Crescent
Oct 11
First Quarter
Oct 18
Full
Oct 26
Last Quarter
Nov 3
New

Hourly Weather History & Observations

Time (CDT) Temp. Windchill Dew Point Humidity Pressure Visibility Wind Dir Wind Speed Gust Speed Precip Events Conditions
12:58 AM 44.4 °F - 44.4 °F 100% 29.78 in 10.0 mi WNW 2.3 mph - 0.01 in   Clear
1:58 AM 46.2 °F 42.2 °F 44.4 °F 93% 29.76 in 10.0 mi West 8.1 mph - N/A   Clear
2:58 AM 41.7 °F - 41.5 °F 99% 29.75 in 10.0 mi Calm Calm - N/A   Clear
3:13 AM 39.2 °F - 39.2 °F 100% 29.73 in 8.0 mi Calm Calm - N/A   Clear
3:18 AM 39.2 °F - 39.2 °F 100% 29.73 in 2.5 mi Calm Calm - N/A   Clear
3:23 AM 41.0 °F - 41.0 °F 100% 29.74 in 3.0 mi SW 2.3 mph - N/A   Clear
3:28 AM 41.0 °F 39.0 °F 41.0 °F 100% 29.73 in 10.0 mi WSW 3.5 mph - N/A   Clear
3:58 AM 39.2 °F - 39.2 °F 100% 29.75 in 10.0 mi Calm Calm - N/A   Clear
4:03 AM 39.2 °F - 39.2 °F 100% 29.73 in 4.0 mi ENE 1.2 mph - N/A   Clear
4:08 AM 39.2 °F - 39.2 °F 100% 29.73 in 3.0 mi ESE 2.3 mph - N/A   Clear
4:13 AM 39.2 °F - 39.2 °F 100% 29.72 in 6.0 mi Calm Calm - N/A   Clear
4:18 AM 39.2 °F - 39.2 °F 100% 29.72 in 10.0 mi Calm Calm - N/A   Clear
4:48 AM 37.4 °F - 37.4 °F 100% 29.72 in 6.0 mi SSE 2.3 mph - N/A   Clear
4:53 AM 37.4 °F - 37.4 °F 100% 29.72 in 1.8 mi SE 1.2 mph - N/A   Clear
4:58 AM 37.4 °F - 37.4 °F 100% 29.74 in 1.8 mi Calm Calm - N/A   Clear
5:03 AM 37.4 °F - 37.4 °F 100% 29.72 in 5.0 mi Calm Calm - N/A   Clear
5:23 AM 37.4 °F - 37.4 °F 100% 29.72 in 10.0 mi SE 2.3 mph - N/A   Clear
5:33 AM 37.4 °F - 37.4 °F 100% 29.72 in 9.0 mi Calm Calm - N/A   Clear
5:48 AM 37.4 °F - 37.4 °F 100% 29.72 in 2.0 mi East 1.2 mph - N/A   Clear
5:53 AM 37.4 °F - 37.4 °F 100% 29.72 in 1.8 mi Calm Calm - N/A   Clear
5:58 AM 35.6 °F - 35.6 °F 100% 29.74 in 3.0 mi Calm Calm - N/A   Clear
6:13 AM 37.4 °F - 37.4 °F 100% 29.73 in 7.0 mi Calm Calm - N/A   Clear
6:18 AM 37.4 °F - 37.4 °F 100% 29.73 in 10.0 mi SE 1.2 mph - N/A   Clear
6:43 AM 35.6 °F - 35.6 °F 100% 29.73 in 4.0 mi Calm Calm - N/A   Clear
6:48 AM 35.6 °F - 35.6 °F 100% 29.73 in 1.8 mi East 1.2 mph - N/A   Clear
6:53 AM 35.6 °F - 35.6 °F 100% 29.73 in 0.8 mi ESE 2.3 mph - N/A   Clear
6:58 AM 35.6 °F - 35.6 °F 100% 29.75 in 0.8 mi East 1.2 mph - N/A   Clear
7:03 AM 35.6 °F - 35.6 °F 100% 29.73 in 0.5 mi Calm Calm - N/A Fog Fog
7:08 AM 35.6 °F - 35.6 °F 100% 29.73 in 0.5 mi East 1.2 mph - N/A Fog Fog
7:13 AM 35.6 °F - 35.6 °F 100% 29.73 in 1.8 mi East 2.3 mph - N/A   Clear
7:18 AM 35.6 °F 32.8 °F 35.6 °F 100% 29.73 in 6.0 mi East 3.5 mph - N/A   Clear
7:23 AM 33.8 °F 30.8 °F 33.8 °F 100% 29.73 in 1.0 mi East 3.5 mph - N/A   Clear
7:28 AM 33.8 °F 30.8 °F 33.8 °F 100% 29.73 in 0.2 mi East 3.5 mph - N/A Fog Fog
7:38 AM 35.6 °F 31.7 °F 35.6 °F 100% 29.72 in 0.5 mi East 4.6 mph - N/A Fog Fog
7:43 AM 35.6 °F 31.7 °F 35.6 °F 100% 29.73 in 0.8 mi ESE 4.6 mph - N/A   Clear
7:48 AM 35.6 °F 32.8 °F 35.6 °F 100% 29.72 in 2.5 mi East 3.5 mph - N/A   Clear
7:53 AM 35.6 °F - 35.6 °F 100% 29.73 in 10.0 mi ESE 2.3 mph - N/A   Clear
7:58 AM 36.7 °F - 36.7 °F 100% 29.75 in 10.0 mi SE 2.3 mph - N/A   Clear
8:58 AM 45.3 °F - 43.5 °F 93% 29.73 in 10.0 mi ESE 2.3 mph - N/A   Clear
9:58 AM 51.3 °F - 41.4 °F 69% 29.74 in 10.0 mi Variable 2.3 mph - N/A   Scattered Clouds
10:58 AM 52.7 °F - 40.3 °F 63% 29.75 in 10.0 mi West 4.6 mph - N/A   Clear
11:58 AM 55.4 °F - 41.7 °F 60% 29.74 in 10.0 mi Variable 1.2 mph - N/A   Scattered Clouds
12:58 PM 54.3 °F - 39.6 °F 57% 29.72 in 10.0 mi Variable 3.5 mph - N/A   Mostly Cloudy
1:58 PM 53.8 °F - 36.9 °F 53% 29.71 in 10.0 mi Calm Calm - N/A   Scattered Clouds
2:58 PM 55.2 °F - 37.9 °F 52% 29.70 in 10.0 mi NE 4.6 mph - N/A   Mostly Cloudy
3:58 PM 55.0 °F - 37.8 °F 52% 29.70 in 10.0 mi Calm Calm - N/A   Clear
4:58 PM 54.7 °F - 38.7 °F 55% 29.70 in 10.0 mi SSE 2.3 mph - N/A   Mostly Cloudy
5:58 PM 53.6 °F - 41.2 °F 63% 29.73 in 10.0 mi SSW 2.3 mph - N/A   Overcast
6:58 PM 50.0 °F - 42.1 °F 74% 29.75 in 10.0 mi West 6.9 mph - N/A   Overcast
7:58 PM 49.5 °F - 42.6 °F 77% 29.76 in 10.0 mi West 6.9 mph - N/A   Mostly Cloudy
8:58 PM 48.2 °F - 42.8 °F 82% 29.76 in 10.0 mi West 5.8 mph - N/A   Overcast
9:58 PM 47.8 °F - 42.6 °F 82% 29.76 in 10.0 mi WNW 8.1 mph - N/A   Mostly Cloudy
10:58 PM 47.3 °F - 42.3 °F 83% 29.75 in 10.0 mi West 5.8 mph - N/A   Mostly Cloudy
11:58 PM 47.5 °F - 43.0 °F 84% 29.75 in 10.0 mi West 4.6 mph - N/A   Overcast